Flag for Poland Weather past 2 weeks in Wroclaw, Poland

Now
41 °F

Light rain. Passing clouds.


Feels Like: 38 °F
Forecast: 39 / 49 °F
Wind: 5 mph from Southwest

Location: Wroclaw Ii

Current Time: Dec 18, 2014 at 12:57:34 AM

Latest Report: Dec 18, 2014 at 12:30 AM


Visibility: N/A

Pressure: 29.74 "Hg

Humidity: 81%

Dew point: 36 °F

Location of WroclawLocation

Historic Weather in Wroclaw — Graph

°F

Wroclaw temperature yesterday

Maximum temperature yesterday: 43 °F (at 12:00 AM)
Minimum temperature yesterday: 36 °F (at 8:00 AM)
Average temperature yesterday: 40 °F

Past Weeks' High & Low Weather Summary

 TemperatureHumidityPressure
High52 °F (Dec 13, 3:00 AM)100% (Dec 5, 6:30 AM)30.42 "Hg (Dec 5, 6:30 AM)
Low19 °F (Dec 9, 3:30 AM)54% (Dec 12, 6:00 PM)29.59 "Hg (Dec 13, 1:00 AM)
Average38 °F85%30.02 "Hg
* Reported Dec 2 11:00 PM — Dec 17 11:30 PM, Wroclaw, Weather by CustomWeather, © 2014

Note: Actual official high and low records may vary slightly from our data, if they occured in-between our weather recording intervals... More about our weather records

Advertising

Wroclaw weather history for previous 24 hours

 ConditionsComfort  
Time TempWeatherWind HumidityBarometerVisibility
11:30 PM
Dec 17
41 °FLight rain. Passing clouds.6 mph81%29.74 "HgN/A
11:00 PM41 °FPassing clouds.3 mph76%29.74 "HgN/A
10:30 PM41 °FPassing clouds.3 mph76%29.74 "HgN/A
10:00 PM41 °FPassing clouds.3 mph70%29.74 "HgN/A
9:30 PM41 °FPassing clouds.5 mph70%29.74 "HgN/A
9:00 PM41 °FPassing clouds.6 mph70%29.74 "HgN/A
8:30 PM39 °FPassing clouds.5 mph70%29.74 "HgN/A
8:00 PM37 °FClear.3 mph75%29.74 "Hg10 mi
7:30 PM37 °FPassing clouds.5 mph75%29.74 "HgN/A
7:00 PM39 °FClear.5 mph70%29.74 "Hg10 mi
6:30 PM39 °FPassing clouds.6 mph75%29.74 "HgN/A
6:00 PM39 °FPassing clouds.7 mph75%29.74 "HgN/A
5:30 PM39 °FClear.7 mph75%29.77 "Hg10 mi
5:00 PM39 °FPassing clouds.6 mph75%29.77 "HgN/A
4:30 PM41 °FPassing clouds.5 mph66%29.77 "HgN/A
4:00 PM41 °FPassing clouds.6 mph70%29.77 "HgN/A
3:30 PM41 °FPassing clouds.6 mph66%29.80 "HgN/A
3:00 PM43 °FPassing clouds.6 mph66%29.80 "HgN/A
2:30 PM43 °FPassing clouds.5 mph66%29.80 "HgN/A
2:00 PM43 °FPassing clouds.5 mph66%29.80 "HgN/A
1:30 PM43 °FPassing clouds.5 mph61%29.83 "HgN/A
1:00 PM43 °FPassing clouds.7 mph61%29.83 "HgN/A
12:30 PM43 °FPassing clouds.8 mph61%29.83 "HgN/A
12:00 PM43 °FPassing clouds.9 mph66%29.86 "HgN/A
11:30 AM43 °FPassing clouds.8 mph71%29.86 "HgN/A
11:00 AM43 °FPassing clouds.7 mph71%29.86 "HgN/A
10:30 AM41 °FSunny.5 mph76%29.89 "Hg10 mi
10:00 AM39 °FSunny.6 mph81%29.89 "Hg10 mi
9:30 AM37 °FPassing clouds.6 mph81%29.89 "HgN/A
9:00 AM37 °FPassing clouds.5 mph81%29.89 "HgN/A
8:30 AM36 °FPassing clouds.7 mph87%29.89 "HgN/A
8:00 AM36 °FPassing clouds.6 mph87%29.89 "HgN/A
7:30 AM37 °FPassing clouds.7 mph81%29.89 "HgN/A
7:00 AM37 °FPassing clouds.7 mph81%29.89 "HgN/A
6:30 AM37 °FClear.8 mph87%29.86 "Hg10 mi
6:00 AM37 °FPassing clouds.8 mph81%29.86 "HgN/A
5:30 AM39 °FPassing clouds.8 mph81%29.86 "HgN/A
5:00 AM41 °FPassing clouds.10 mph81%29.86 "HgN/A
4:30 AM41 °FPassing clouds.8 mph76%29.86 "HgN/A
4:00 AM41 °FPassing clouds.10 mph76%29.86 "HgN/A
3:30 AM41 °FPassing clouds.9 mph81%29.86 "HgN/A
3:00 AM41 °FPassing clouds.9 mph81%29.86 "HgN/A
2:30 AM43 °FLight rain. Passing clouds.8 mph76%29.83 "HgN/A
2:00 AM43 °FLight rain. Passing clouds.9 mph81%29.83 "HgN/A
1:30 AM43 °FPassing clouds.10 mph81%29.83 "HgN/A
12:30 AM43 °FLight rain. Partly cloudy.3 mph81%29.83 "HgN/A
12:00 AM43 °FPartly cloudy.5 mph81%29.83 "HgN/A
Weather by CustomWeather, © 2014

See weather overviewHow to use our weather pages